# Message Decoder for Solo2, Alto and Deep Solo Floats; v260727
#      SN Cycle Size            IMEI MOMSN MTMSN PID       Date      Time  Latitude Longitude Err Status Sensor IDs
SBD  8932   191  255 000000000000009  1246     0   0 2026/08/24, 17:06:24, -58.8707  -79.1800 157      0 15,0,0,4
SBD  8932   191  261 000000000000009  1247     0  10 2026/08/24, 17:06:32, -58.8707  -79.1800 155      0 5,6
SBD  8932   191  116 000000000000009  1248     0  11 2026/08/24, 17:06:41, -58.8707  -79.1800 154      0 14
# Raw packet information
#  Packets Packet_bytes Header_bytes Total_bytes
P0       7          596           36         632
# Sensor_ID bytes     % packets Description
          0    48  8.05       2         GPS
          4   158 26.51       1        Fall
          5   168 28.19       1        Rise
          6    81 13.59       1        Pump
         14   104 17.45       1 Engineering
         15    37  6.21       1     Mission
# GPS Position
#    C Phs Date     Time   Latitude  Longitude Tfix  N Signal   Hdop status
G  191 1 2026/08/14 19:05 -59.47383  -77.43417   20 10 31 40 46  0.7     0
G  191 2 2026/08/24 17:04 -58.76705  -76.62278   70  6 31 40 48  1.4     0
# Fall Time Series
#  Cycle npts     Start                Date
F00  191   30 840049523 2026/08/14 19:05:23
# time     Pres phase                Date
     0   -0.040     1 2026/08/14 19:05:23
   100   14.480    10 2026/08/14 19:07:03
   200   33.840    10 2026/08/14 19:08:43
   300   53.320    10 2026/08/14 19:10:23
   400   74.360    10 2026/08/14 19:12:03
   500   94.840    10 2026/08/14 19:13:43
   600  114.680     2 2026/08/14 19:15:23
  1800  278.480    10 2026/08/14 19:35:23
  3000  423.520    10 2026/08/14 19:55:23
  4200  548.760    10 2026/08/14 20:15:23
  5400  667.080    10 2026/08/14 20:35:23
  6600  771.600    10 2026/08/14 20:55:23
  7800  850.400    10 2026/08/14 21:15:23
  9000  908.920    10 2026/08/14 21:35:23
 10200  944.560    10 2026/08/14 21:55:23
 11400  977.080    10 2026/08/14 22:15:23
 12600  991.160    10 2026/08/14 22:35:23
 13800  997.720    10 2026/08/14 22:55:23
 15000  991.480    10 2026/08/14 23:15:23
 16200  994.080    10 2026/08/14 23:35:23
 17400  994.280    10 2026/08/14 23:55:23
 18600  987.280    10 2026/08/15 00:15:23
 19800  989.720    10 2026/08/15 00:35:23
 21000  991.440    10 2026/08/15 00:55:23
 22200  989.000    10 2026/08/15 01:15:23
 23400  991.160    10 2026/08/15 01:35:23
 24600  992.240    10 2026/08/15 01:55:23
 24608  992.240     3 2026/08/15 01:55:31
 31825  989.960     3 2026/08/15 03:55:48
 39051  991.800     4 2026/08/15 05:56:14
# Rise Time Series
#  Cycle npts     Start                Date
R00  191   32 840880597 2026/08/24 09:56:37
# time     Pres phase                Date
     0  995.600     6 2026/08/24 09:56:37
  1200 1099.720    12 2026/08/24 10:16:37
  2400 1250.600    12 2026/08/24 10:36:37
  3600 1402.080    12 2026/08/24 10:56:37
  4800 1548.320    12 2026/08/24 11:16:37
  6000 1665.520    12 2026/08/24 11:36:37
  7200 1761.120    12 2026/08/24 11:56:37
  8400 1851.000    12 2026/08/24 12:16:37
  9600 1930.160    12 2026/08/24 12:36:37
 10704 1982.960    12 2026/08/24 12:55:01
 11122 1997.880    12 2026/08/24 13:01:59
 11322 2003.840    12 2026/08/24 13:05:19
 11378 2005.400     7 2026/08/24 13:06:15
 12423 1838.200    13 2026/08/24 13:23:40
 13423 1703.040    13 2026/08/24 13:40:20
 14423 1576.800    13 2026/08/24 13:57:00
 15423 1405.240    13 2026/08/24 14:13:40
 16423 1247.520    13 2026/08/24 14:30:20
 17423 1116.760    13 2026/08/24 14:47:00
 18423 1002.120    13 2026/08/24 15:03:40
 19423  845.200    13 2026/08/24 15:20:20
 20423  703.080    13 2026/08/24 15:37:00
 21423  577.120    13 2026/08/24 15:53:40
 22423  411.360    13 2026/08/24 16:10:20
 23423  260.440    13 2026/08/24 16:27:00
 24423  123.840    13 2026/08/24 16:43:40
 24899   66.280    13 2026/08/24 16:51:36
 25154   23.120    13 2026/08/24 16:55:51
 25274    3.480    13 2026/08/24 16:57:51
 25394   -0.040    13 2026/08/24 16:59:51
 25415    0.040     8 2026/08/24 17:00:12
 25716   -0.080    14 2026/08/24 17:05:13
# Pump Time Series
#   Cycle npts
B01   191    7
# Pressure time Voltage Current Vacuum       phase
#     dBar  sec    volt      mA Before After
   114.680   30   14.96     451      2     2     2
  2005.400   34   14.78    2851      2     3     7
  1576.800   16   14.83    2343      2     3    13
  1002.120   16   14.87    1606      2     4    13
   577.120   16   14.93    1067      2     3    13
    66.280   16   15.06     378      2     3    13
     0.000  165   15.04     268      2     6     8
# Argo Mission Data
#  Cycle Data Miss  Prof  Park  Rise  Park  Prof Drift Ascent Seeks Surface Seek   Cycle
#        Form    #  dbar  dbar   min   min   min   min   cm/s     #     sec  min     day
A2   191  2.6    4  2000  1000   600   400   330 13200     13     2    2145  120 10.0432
# Cal Coeff    P                 T                  S
#          gain  offset      gain  offset       gain  offset
CP           25      10      1000       5      5000     -25
# Engineering Data
# Normal Cycle
# Communications:
#    Cycle Tries Sent Reply_Status SBD_status  Time  Interrupt  Packets
EC02  191     3    3         0      1            53       0        3
# Pump:
#    Cycle Voltages          Vacuum                     Currents       Times                          Vent
#          CPU  Pump  End    @50db S_Before S_After     Pump  Max      To_Surf @_Surf To_Target Vent  Status
EP02  191  7.31 15.15 15.04 10.48  10.75    11.14      2851.0 2888.0    98     165     30.2     0.0    0
# CTD:
#   Cycle  Surface Pres     Start of Profile        End of Profile          Scans  Status P offset Bad Scans
#          Before    After  Pres    Temp   Salinity Pres    Temp   Salinity
ES02  191  -0.120   -0.080 2004.400   4.317  32.351   0.600   6.081  32.639   13881   17     0.3100    0
# Cycle Info:
# Descent
#   Cycle P_Start P_end   Time   Speed    1st Seek        Except Ice Detect
#                                         Time  P_change  Flags  Status
EF02  191   -0.040  989.960  300    17.7     0.0    -2.2    0       0
# Drift and Rise
#   Cycle   Drift            Ascent   Drift Averages
#           P_Start P_end    P_end    1st half                2nd half
#                                     Pres    Temp   Salinity Pres    Temp   Salinity
ET02  191  991.800  995.600    0.040  998.920   5.106  32.126  998.440   5.098  32.125
